| Date Time MST |
Temp °F |
RH % |
DewPt °F |
Wind mph |
Dir ° |
Gust mph |
Dir ° |
Press in Hg |
Solar W/m^2 |
Prec in |
|---|---|---|---|---|---|---|---|---|---|---|
| 2026-05-03 17:05 | 71.7 | 14.5 | 20.8 | 3.2 | 350 | 4.8 | 18 | 24.718 | 137.2 | 0.00 |
| 2026-05-03 17:00 | 71.7 | 12.1 | 16.5 | 0.1 | 339 | 0.7 | 318 | 24.718 | 153.8 | 0.00 |
| 2026-05-03 16:55 | 71.3 | 12.6 | 17.2 | 1.2 | 310 | 2.4 | 290 | 24.718 | 155.6 | 0.00 |
| 2026-05-03 16:50 | 70.9 | 12.0 | 15.7 | 2.8 | 321 | 4.3 | 321 | 24.718 | 140.5 | 0.00 |
| 2026-05-03 16:45 | 70.7 | 13.3 | 18.0 | 3.4 | 354 | 4.9 | 341 | 24.718 | 128.0 | 0.00 |
| 2026-05-03 16:40 | 70.8 | 13.1 | 17.7 | 4.7 | 332 | 7.1 | 310 | 24.720 | 128.1 | 0.00 |
| 2026-05-03 16:35 | 70.9 | 13.3 | 18.1 | 5.8 | 314 | 9.0 | 302 | 24.722 | 124.8 | 0.00 |
| 2026-05-03 16:30 | 70.8 | 12.9 | 17.4 | 8.6 | 303 | 10.9 | 306 | 24.724 | 142.9 | 0.00 |
| 2026-05-03 16:25 | 70.9 | 12.8 | 17.3 | 11.8 | 313 | 17.5 | 322 | 24.725 | 149.9 | 0.00 |
| 2026-05-03 16:20 | 71.1 | 12.9 | 17.5 | 10.4 | 302 | 13.5 | 331 | 24.724 | 151.8 | 0.00 |
| 2026-05-03 16:15 | 71.1 | 12.5 | 16.8 | 11.3 | 332 | 16.3 | 299 | 24.723 | 158.4 | 0.00 |
| 2026-05-03 16:10 | 71.3 | 12.2 | 16.3 | 12.9 | 291 | 19.7 | 302 | 24.723 | 162.0 | 0.00 |
| 2026-05-03 16:05 | 71.6 | 11.8 | 15.8 | 14.6 | 303 | 21.1 | 292 | 24.722 | 163.6 | 0.00 |
| 2026-05-03 16:00 | 71.5 | 11.7 | 15.6 | 16.0 | 291 | 21.4 | 309 | 24.721 | 170.8 | 0.00 |
| 2026-05-03 15:55 | 71.7 | 12.6 | 17.6 | 19.6 | 306 | 24.1 | 305 | 24.720 | 172.8 | 0.00 |
| 2026-05-03 15:50 | 71.8 | 11.8 | 16.1 | 17.6 | 299 | 24.4 | 303 | 24.719 | 174.1 | 0.00 |
| 2026-05-03 15:45 | 72.0 | 12.2 | 16.9 | 18.7 | 301 | 24.5 | 306 | 24.719 | 178.3 | 0.00 |
| 2026-05-03 15:40 | 72.5 | 11.8 | 16.5 | 15.4 | 323 | 20.9 | 313 | 24.718 | 196.7 | 0.00 |
| 2026-05-03 15:35 | 72.7 | 11.6 | 16.3 | 15.6 | 304 | 19.6 | 304 | 24.718 | 215.3 | 0.00 |
| 2026-05-03 15:30 | 72.9 | 11.5 | 16.4 | 9.9 | 313 | 16.4 | 313 | 24.719 | 236.9 | 0.00 |
| 2026-05-03 15:25 | 72.7 | 11.7 | 16.6 | 9.1 | 317 | 13.1 | 317 | 24.720 | 249.1 | 0.00 |
| 2026-05-03 15:20 | 72.7 | 12.4 | 17.9 | 9.2 | 251 | 18.8 | 309 | 24.721 | 252.2 | 0.00 |
| 2026-05-03 15:15 | 72.5 | 12.8 | 18.5 | 8.7 | 329 | 11.4 | 325 | 24.725 | 251.2 | 0.00 |
| 2026-05-03 15:10 | 72.2 | 12.9 | 18.5 | 6.5 | 332 | 13.0 | 315 | 24.726 | 248.4 | 0.00 |
| 2026-05-03 15:05 | 72.2 | 12.7 | 18.0 | 8.7 | 319 | 14.8 | 342 | 24.729 | 244.4 | 0.00 |
| 2026-05-03 15:00 | 72.4 | 12.5 | 18.0 | 9.0 | 323 | 12.3 | 330 | 24.732 | 274.8 | 0.00 |
| 2026-05-03 14:55 | 71.9 | 13.1 | 18.6 | 9.5 | 353 | 13.4 | 310 | 24.735 | 302.5 | 0.00 |
| 2026-05-03 14:50 | 71.7 | 12.9 | 18.0 | 10.7 | 323 | 13.4 | 312 | 24.738 | 291.0 | 0.00 |
| 2026-05-03 14:45 | 71.3 | 13.5 | 18.9 | 12.8 | 332 | 17.1 | 7 | 24.739 | 258.5 | 0.00 |
| 2026-05-03 14:40 | 71.2 | 13.7 | 19.2 | 10.5 | 0 | 14.3 | 359 | 24.740 | 239.2 | 0.00 |
| Date Time MST |
Temp °C |
RH % |
DewPt °C |
Wind m/s |
Dir ° |
Gust m/s |
Dir ° |
Press hPa |
Solar W/m^2 |
Prec mm |
|---|---|---|---|---|---|---|---|---|---|---|
| 2026-05-03 17:05 | 22.1 | 14.5 | -6.2 | 1.4 | 350 | 2.1 | 18 | 837.06 | 137.2 | 0.00 |
| 2026-05-03 17:00 | 22.1 | 12.1 | -8.6 | 0.1 | 339 | 0.3 | 318 | 837.06 | 153.8 | 0.00 |
| 2026-05-03 16:55 | 21.9 | 12.6 | -8.2 | 0.5 | 310 | 1.1 | 290 | 837.06 | 155.6 | 0.00 |
| 2026-05-03 16:50 | 21.6 | 12.0 | -9.0 | 1.3 | 321 | 1.9 | 321 | 837.05 | 140.5 | 0.00 |
| 2026-05-03 16:45 | 21.5 | 13.3 | -7.8 | 1.5 | 354 | 2.2 | 341 | 837.05 | 128.0 | 0.00 |
| 2026-05-03 16:40 | 21.6 | 13.1 | -7.9 | 2.1 | 332 | 3.2 | 310 | 837.13 | 128.1 | 0.00 |
| 2026-05-03 16:35 | 21.6 | 13.3 | -7.7 | 2.6 | 314 | 4.0 | 302 | 837.17 | 124.8 | 0.00 |
| 2026-05-03 16:30 | 21.6 | 12.9 | -8.1 | 3.8 | 303 | 4.9 | 306 | 837.25 | 142.9 | 0.00 |
| 2026-05-03 16:25 | 21.6 | 12.8 | -8.2 | 5.3 | 313 | 7.8 | 322 | 837.29 | 149.9 | 0.00 |
| 2026-05-03 16:20 | 21.7 | 12.9 | -8.0 | 4.7 | 302 | 6.0 | 331 | 837.25 | 151.8 | 0.00 |
| 2026-05-03 16:15 | 21.7 | 12.5 | -8.4 | 5.0 | 332 | 7.3 | 299 | 837.22 | 158.4 | 0.00 |
| 2026-05-03 16:10 | 21.8 | 12.2 | -8.7 | 5.8 | 291 | 8.8 | 302 | 837.22 | 162.0 | 0.00 |
| 2026-05-03 16:05 | 22.0 | 11.8 | -9.0 | 6.5 | 303 | 9.4 | 292 | 837.17 | 163.6 | 0.00 |
| 2026-05-03 16:00 | 21.9 | 11.7 | -9.1 | 7.2 | 291 | 9.6 | 309 | 837.14 | 170.8 | 0.00 |
| 2026-05-03 15:55 | 22.1 | 12.6 | -8.0 | 8.8 | 306 | 10.8 | 305 | 837.12 | 172.8 | 0.00 |
| 2026-05-03 15:50 | 22.1 | 11.8 | -8.8 | 7.9 | 299 | 10.9 | 303 | 837.09 | 174.1 | 0.00 |
| 2026-05-03 15:45 | 22.2 | 12.2 | -8.4 | 8.4 | 301 | 10.9 | 306 | 837.07 | 178.3 | 0.00 |
| 2026-05-03 15:40 | 22.5 | 11.8 | -8.6 | 6.9 | 323 | 9.3 | 313 | 837.05 | 196.7 | 0.00 |
| 2026-05-03 15:35 | 22.6 | 11.6 | -8.7 | 7.0 | 304 | 8.7 | 304 | 837.05 | 215.3 | 0.00 |
| 2026-05-03 15:30 | 22.7 | 11.5 | -8.7 | 4.4 | 313 | 7.3 | 313 | 837.07 | 236.9 | 0.00 |
| 2026-05-03 15:25 | 22.6 | 11.7 | -8.5 | 4.1 | 317 | 5.9 | 317 | 837.13 | 249.1 | 0.00 |
| 2026-05-03 15:20 | 22.6 | 12.4 | -7.8 | 4.1 | 251 | 8.4 | 309 | 837.14 | 252.2 | 0.00 |
| 2026-05-03 15:15 | 22.5 | 12.8 | -7.5 | 3.9 | 329 | 5.1 | 325 | 837.28 | 251.2 | 0.00 |
| 2026-05-03 15:10 | 22.4 | 12.9 | -7.5 | 2.9 | 332 | 5.8 | 315 | 837.33 | 248.4 | 0.00 |
| 2026-05-03 15:05 | 22.3 | 12.7 | -7.8 | 3.9 | 319 | 6.6 | 342 | 837.43 | 244.4 | 0.00 |
| 2026-05-03 15:00 | 22.5 | 12.5 | -7.8 | 4.0 | 323 | 5.5 | 330 | 837.53 | 274.8 | 0.00 |
| 2026-05-03 14:55 | 22.1 | 13.1 | -7.4 | 4.2 | 353 | 6.0 | 310 | 837.61 | 302.5 | 0.00 |
| 2026-05-03 14:50 | 22.1 | 12.9 | -7.8 | 4.8 | 323 | 6.0 | 312 | 837.74 | 291.0 | 0.00 |
| 2026-05-03 14:45 | 21.8 | 13.5 | -7.3 | 5.7 | 332 | 7.7 | 7 | 837.77 | 258.5 | 0.00 |
| 2026-05-03 14:40 | 21.8 | 13.7 | -7.1 | 4.7 | 0 | 6.4 | 359 | 837.79 | 239.2 | 0.00 |